Weather in Chervonograd

Ukraine / Lviv District     50˚23′37″N   24˚14′21″E
temp.,
°C
wind,
m/s
gust,
m/s
humid.,
%
clouds,
%
prec.,
mm/h
press.,
hPa
HPBL,
m
27 november, fri
fri2723:00wsw49790 0.0 1022271
02:00wsw5117632 0.0 1021290
05:00wsw5117595 0.0 1020314
08:00+2˚w5107998 0.1 1020369
11:00+2˚w5982100 0.1 1021452
14:00+4˚w5881100 0.1 1020580
17:00+2˚wsw5995100 0.4 1020369
20:00+2˚wsw4993100 0.4 1020315
28 november, sat
sat2823:00+2˚wsw4891100 0.1 1020277
02:00+2˚w4990100 0.2 1019395
05:00+2˚w379194 0.1 1018286
08:00+1˚wnw369697 0.4 1018335
11:00+2˚w3594100 0.5 1019353
14:00+2˚wsw4691100 0.8 1019446
17:00+1˚wnw4793100 1.0 1019474
20:00nnw4795100 1.8 1019492
29 november, sun
sun2923:00−1˚nnw4795100 0.3 1020424
02:00−1˚nw369099 0.4 1020445
05:00−2˚wnw359082 0.0 1019267
08:00−2˚wnw258986 0.0 1020269
11:00w347990 0.0 1020475
14:00wnw347394 0.1 1020769
17:00−1˚w2380100 0.0 102043
20:00−1˚w3594100 0.1 1021214
30 november, mon
mon3023:00−1˚wsw3496100 0.1 1021229
02:00−2˚wsw2394100 0.1 1022107
05:00−2˚sw239465 0.0 1022122
08:00−2˚sw249680 0.2 1024166
11:00wsw238677 0.1 1025395
14:00wnw237882 0.1 1026594
17:00nw2280100 0.1 102780
20:00nw2379100 0.1 1028123
1 december, tue
tue123:00−1˚n1184100 0.0 102957
02:00−3˚nw118890 0.0 102821
05:00−3˚ese118890 0.0 102821
08:00−3˚se239077 0.0 102866
11:00−1˚sse35760 0.0 1028610
14:00se35670 0.0 1026741
17:00−2˚ese36832 0.0 1026141
20:00−3˚ese488310 0.0 1026236